FW4092 Weather Reports


Display with metric or nautical units.
time (UTC)temp
F
wind
direction
speed
MPH
gust
MPH
rain 1hr
in
rain 24hr
in
rain mn
in
humidity
%
barometer
mb
20260905160541 44 148 0.0 3.0 0.00 0.06 0.01 95 1015.1
20260905155808 44 150 0.0 3.0 0.00 0.06 0.01 94 1015.2
20260905155305 44 153 0.0 2.0 0.00 0.06 0.01 95 1015.2
20260905154756 44 153 0.0 3.0 0.00 0.06 0.01 95 1015.2
20260905154250 44 153 1.0 3.0 0.00 0.06 0.01 95 1015.1
20260905153744 44 153 1.0 6.0 0.00 0.06 0.01 94 1015.0
20260905153244 44 157 1.0 6.0 0.00 0.06 0.01 95 1015.0
20260905152742 44 140 2.0 9.0 0.00 0.06 0.01 95 1014.8
20260905152242 44 148 2.0 9.0 0.00 0.06 0.01 95 1015.0
20260905152009 45 143 2.0 7.0 0.00 0.06 0.01 95 1015.1
20260905151512 45 142 2.0 7.0 0.00 0.06 0.01 96 1015.1
20260905151006 45 157 2.0 6.0 0.00 0.06 0.01 96 1015.1
20260905150241 44 149 2.0 5.0 0.00 0.06 0.01 96 1015.1
20260905145742 44 150 2.0 5.0 0.00 0.06 0.01 96 1015.1
20260905145507 43 157 2.0 5.0 0.00 0.06 0.01 96 1015.0
20260905144742 43 155 2.0 5.0 0.00 0.06 0.01 96 1015.0
20260905144242 42 140 2.0 6.0 0.00 0.06 0.01 96 1014.8
20260905143742 42 151 2.0 6.0 0.00 0.06 0.01 96 1014.8
20260905143242 42 149 1.0 7.0 0.00 0.06 0.01 96 1014.8
20260905142742 42 154 1.0 7.0 0.00 0.06 0.01 96 1014.7
20260905142243 42 143 3.0 7.0 0.00 0.06 0.01 96 1014.7
20260905141745 42 144 3.0 7.0 0.00 0.06 0.01 96 1014.5
20260905141238 41 141 2.0 5.0 0.00 0.06 0.01 96 1014.5
20260905140738 41 152 2.0 5.0 0.00 0.06 0.01 96 1014.5
20260905140506 41 136 2.0 5.0 0.00 0.06 0.01 96 1014.4
20260905135737 41 146 2.0 5.0 0.00 0.06 0.01 96 1014.5
20260905135238 41 148 1.0 4.0 0.00 0.06 0.01 96 1014.4
20260905135001 41 146 2.0 5.0 0.00 0.06 0.01 96 1014.4
20260905134238 41 145 2.0 5.0 0.00 0.06 0.01 96 1014.4
20260905133738 41 159 3.0 7.0 0.00 0.06 0.01 96 1014.4
20260905133237 41 146 3.0 7.0 0.00 0.06 0.01 96 1014.3
20260905132733 41 161 3.0 7.0 0.00 0.06 0.01 96 1014.4
20260905132234 41 140 3.0 7.0 0.00 0.06 0.01 96 1014.4
20260905131734 41 144 3.0 7.0 0.00 0.06 0.01 95 1014.3
20260905131234 41 155 3.0 8.0 0.00 0.06 0.01 96 1014.3
20260905130735 41 155 2.0 8.0 0.00 0.06 0.01 96 1014.3
20260905130724 41 170 2.0 7.0 0.00 0.06 0.01 96 1014.4
20260905125732 41 147 2.0 6.0 0.00 0.06 0.01 96 1014.3
20260905125232 40 144 1.0 4.0 0.00 0.06 0.01 96 1014.2
20260905124732 40 146 1.0 4.0 0.00 0.06 0.01 95 1014.3
20260905124232 40 146 1.0 4.0 0.00 0.06 0.01 95 1014.5
20260905123734 40 143 1.0 4.0 0.00 0.06 0.01 95 1014.5
20260905123231 40 136 2.0 7.0 0.00 0.06 0.01 95 1014.5
20260905122730 41 128 2.0 7.0 0.00 0.06 0.01 95 1014.4
20260905122219 41 147 1.0 5.0 0.00 0.06 0.01 95 1014.3
20260905121712 41 150 1.0 5.0 0.00 0.06 0.01 95 1014.4
20260905121206 41 149 2.0 4.0 0.00 0.06 0.01 95 1014.4
20260905120659 41 138 1.0 4.0 0.00 0.06 0.01 95 1014.4
20260905120152 41 140 0.0 3.0 0.00 0.06 0.01 95 1014.4
20260905115646 41 139 0.0 2.0 0.00 0.06 0.01 95 1014.3
20260905115140 41 138 0.0 2.0 0.00 0.06 0.01 95 1014.2
20260905114634 41 138 0.0 3.0 0.00 0.06 0.01 95 1014.3
20260905114128 41 130 1.0 4.0 0.00 0.06 0.01 95 1014.3
20260905113621 41 128 1.0 4.0 0.00 0.06 0.01 95 1014.3
20260905113117 41 134 1.0 3.0 0.00 0.06 0.01 95 1014.3
20260905112609 41 142 0.0 2.0 0.00 0.06 0.01 95 1014.4
20260905112106 41 142 0.0 1.0 0.00 0.06 0.01 95 1014.4
20260905111601 41 142 0.0 1.0 0.00 0.06 0.01 95 1014.4
20260905111051 41 142 0.0 1.0 0.00 0.06 0.01 95 1014.4
20260905110546 41 142 0.0 2.0 0.00 0.06 0.01 95 1014.4
20260905110040 42 142 0.0 2.0 0.00 0.06 0.01 95 1014.4
20260905105534 42 142 0.0 1.0 0.00 0.06 0.01 95 1014.4
20260905105029 42 142 0.0 0.0 0.00 0.06 0.01 95 1014.5
20260905104749 42 142 0.0 0.0 0.00 0.06 0.01 95 1014.5
20260905104021 42 142 0.0 0.0 0.00 0.06 0.01 95 1014.5
20260905103511 42 142 0.0 0.0 0.00 0.06 0.01 95 1014.5
20260905103003 43 142 0.0 3.0 0.00 0.06 0.01 95 1014.5
20260905102459 43 142 1.0 4.0 0.00 0.06 0.01 95 1014.4
20260905101955 43 143 1.0 4.0 0.00 0.06 0.01 95 1014.4
20260905101446 43 157 1.0 4.0 0.00 0.06 0.01 95 1014.3
20260905100940 43 159 1.0 2.0 0.00 0.06 0.01 95 1014.4
20260905100659 43 150 0.0 2.0 0.00 0.06 0.01 95 1014.4
20260905095928 43 147 1.0 3.0 0.00 0.06 0.01 95 1014.4
20260905095422 43 144 1.0 4.0 0.00 0.06 0.01 95 1014.4
20260905094919 43 150 1.0 4.0 0.00 0.06 0.01 95 1014.4
20260905094411 43 146 0.0 2.0 0.01 0.06 0.01 95 1014.4
20260905093904 44 146 1.0 4.0 0.01 0.06 0.01 95 1014.4
20260905093627 44 144 2.0 4.0 0.01 0.06 0.01 95 1014.4
20260905092853 44 144 2.0 4.0 0.01 0.06 0.01 95 1014.5
20260905092611 44 140 2.0 4.0 0.01 0.06 0.01 95 1014.4
20260905091841 44 142 1.0 4.0 0.01 0.06 0.01 95 1014.4
20260905091342 44 139 0.0 2.0 0.01 0.06 0.01 95 1014.4
20260905090841 44 139 1.0 3.0 0.01 0.06 0.01 95 1014.5
20260905090608 44 139 0.0 3.0 0.01 0.06 0.01 95 1014.5
20260905085841 44 139 0.0 1.0 0.01 0.06 0.01 95 1014.4
20260905085605 44 139 0.0 1.0 0.01 0.06 0.01 95 1014.5
20260905084842 44 139 0.0 2.0 0.01 0.06 0.01 95 1014.5
20260905084341 44 139 1.0 3.0 0.00 0.05 0.00 94 1014.5
20260905084039 44 139 1.0 3.0 0.00 0.05 0.00 94 1014.4
20260905082839 45 138 1.0 4.0 0.00 0.05 0.00 94 1014.2
20260905082605 45 145 1.0 4.0 0.00 0.05 0.00 94 1014.1
20260905081838 45 148 1.0 3.0 0.00 0.05 0.00 94 1014.2
20260905081339 45 148 1.0 3.0 0.00 0.05 0.00 95 1014.2
20260905080835 45 148 0.0 2.0 0.00 0.05 0.00 95 1014.0
20260905080335 45 148 0.0 3.0 0.00 0.05 0.00 95 1014.1
20260905080106 45 147 1.0 3.0 0.00 0.05 0.00 95 1014.0
20260905075337 45 148 1.0 3.0 0.00 0.05 0.00 94 1014.1
20260905074835 45 148 1.0 3.0 0.00 0.05 0.00 94 1013.9
20260905074335 45 147 1.0 4.0 0.00 0.05 0.00 94 1014.0
20260905073835 45 147 1.0 4.0 0.00 0.05 0.00 94 1013.8
20260905073335 45 169 1.0 4.0 0.00 0.05 0.00 94 1013.9
20260905073059 45 171 1.0 3.0 0.00 0.05 0.00 94 1013.8
20260905072334 45 171 1.0 3.0 0.00 0.05 0.00 94 1013.6
20260905072057 45 171 1.0 2.0 0.00 0.05 0.00 94 1013.6
20260905071335 45 171 1.0 3.0 0.00 0.05 0.00 94 1013.6
20260905070836 45 172 1.0 3.0 0.00 0.05 0.00 94 1013.6
20260905070555 45 191 0.0 2.0 0.00 0.05 0.00 93 1013.5
20260905065835 45 192 1.0 3.0 0.00 0.05 0.05 93 1013.5
20260905065334 45 192 1.0 3.0 0.00 0.05 0.05 93 1013.5
20260905064832 45 196 0.0 2.0 0.00 0.05 0.05 93 1013.3
20260905064815 45 197 0.0 1.0 0.00 0.05 0.05 93 1013.3
20260905064058 45 197 0.0 1.0 0.00 0.05 0.05 93 1013.3
20260905063330 45 197 0.0 1.0 0.00 0.05 0.05 92 1013.3
20260905062831 45 199 0.0 1.0 0.00 0.05 0.05 92 1013.3
20260905062331 46 199 0.0 0.0 0.00 0.05 0.05 91 1013.2
20260905061828 46 199 0.0 1.0 0.00 0.05 0.05 91 1013.2
20260905061556 46 199 1.0 4.0 0.00 0.05 0.05 92 1013.3
20260905060822 46 199 1.0 4.0 0.00 0.05 0.05 92 1013.2
20260905060547 46 198 1.0 3.0 0.00 0.05 0.05 92 1013.2
20260905055810 47 197 1.0 3.0 0.00 0.05 0.05 92 1013.3
20260905055306 47 194 2.0 5.0 0.00 0.05 0.05 92 1013.3
20260905054758 47 191 1.0 5.0 0.00 0.05 0.05 92 1013.4
20260905054746 47 226 1.0 3.0 0.00 0.05 0.05 92 1013.5
20260905053746 47 228 0.0 3.0 0.00 0.05 0.05 92 1013.5
20260905053240 48 233 1.0 2.0 0.00 0.05 0.05 92 1013.4
20260905052733 48 233 1.0 2.0 0.00 0.05 0.05 93 1013.4
20260905052228 48 245 0.0 2.0 0.00 0.05 0.05 92 1013.3
20260905051722 48 249 0.0 2.0 0.01 0.05 0.05 92 1013.4
20260905051216 48 251 0.0 1.0 0.01 0.05 0.05 92 1013.2
20260905050711 48 251 0.0 1.0 0.01 0.05 0.05 92 1013.2
20260905050204 49 251 0.0 1.0 0.02 0.05 0.05 91 1013.4
20260905050151 49 251 0.0 1.0 0.03 0.05 0.05 91 1013.3
20260905045152 49 251 0.0 1.0 0.03 0.05 0.05 91 1013.3
20260905044646 49 251 1.0 3.0 0.03 0.05 0.05 91 1013.3
20260905044140 49 252 1.0 3.0 0.03 0.05 0.05 91 1013.3
20260905043634 49 253 1.0 3.0 0.03 0.05 0.05 90 1013.3
20260905043129 49 253 0.0 3.0 0.03 0.05 0.05 90 1013.2
20260905042622 49 247 0.0 3.0 0.03 0.05 0.05 90 1013.2
20260905042115 50 245 0.0 3.0 0.03 0.05 0.05 89 1013.2
20260905041610 50 242 0.0 0.0 0.02 0.04 0.04 88 1013.2
20260905041104 50 242 0.0 0.0 0.02 0.04 0.04 87 1013.1
20260905040558 51 240 0.0 0.0 0.02 0.04 0.04 87 1013.1
20260905040052 51 238 0.0 3.0 0.00 0.02 0.03 85 1013.3
20260905035747 51 238 1.0 4.0 0.00 0.02 0.02 84 1013.3
20260905034534 51 226 2.0 5.0 0.00 0.02 0.02 84 1013.4
20260905034254 51 203 2.0 7.0 0.00 0.02 0.02 85 1013.4
20260905033522 51 207 3.0 7.0 0.00 0.02 0.02 85 1013.4
20260905033015 51 233 3.0 7.0 0.00 0.02 0.02 85 1013.3
20260905032509 51 217 3.0 7.0 0.00 0.02 0.02 85 1013.2
20260905032008 51 220 2.0 6.0 0.00 0.02 0.02 85 1013.1
20260905031508 51 238 3.0 8.0 0.00 0.02 0.02 85 1013.0
20260905031006 51 249 4.0 8.0 0.00 0.02 0.02 85 1013.0
20260905030507 51 256 3.0 8.0 0.00 0.02 0.02 84 1013.0
20260905030005 51 256 2.0 6.0 0.00 0.02 0.02 83 1012.9
20260905025506 52 279 2.0 6.0 0.00 0.02 0.02 82 1012.7
20260905025006 52 291 2.0 4.0 0.00 0.02 0.02 80 1012.7
20260905024504 52 297 1.0 4.0 0.00 0.02 0.02 79 1012.6
20260905024004 53 298 1.0 4.0 0.00 0.02 0.02 78 1012.6
20260905023504 53 298 2.0 6.0 0.00 0.02 0.02 77 1012.4
20260905023004 54 297 2.0 6.0 0.00 0.02 0.02 77 1012.4
20260905022504 54 294 2.0 6.0 0.00 0.02 0.02 76 1012.4
20260905022004 55 283 2.0 7.0 0.00 0.02 0.02 75 1012.6
20260905021504 55 232 2.0 7.0 0.00 0.02 0.02 73 1012.6
20260905021004 56 281 1.0 6.0 0.00 0.02 0.02 74 1012.4
20260905020504 56 261 0.0 3.0 0.00 0.02 0.02 69 1012.6
20260905020003 56 268 1.0 3.0 0.00 0.02 0.02 67 1012.3
20260905015505 56 259 1.0 5.0 0.00 0.02 0.02 67 1012.3
20260905015004 56 257 1.0 5.0 0.00 0.02 0.02 66 1012.1
20260905014504 56 257 1.0 4.0 0.00 0.02 0.02 66 1012.1
20260905014004 57 265 1.0 4.0 0.00 0.02 0.02 63 1012.0
20260905013504 57 273 2.0 6.0 0.00 0.02 0.02 62 1012.0
20260905013002 58 269 2.0 6.0 0.00 0.02 0.02 60 1012.0
20260905012704 59 279 2.0 6.0 0.00 0.02 0.02 60 1012.0
20260905011502 60 294 1.0 4.0 0.00 0.02 0.02 57 1011.9
20260905011227 60 286 2.0 4.0 0.00 0.02 0.02 58 1011.9
20260905010500 60 296 2.0 4.0 0.00 0.02 0.02 60 1011.9
20260905005959 59 324 1.0 4.0 0.00 0.02 0.02 61 1011.9
20260905005459 59 333 1.0 4.0 0.00 0.02 0.02 63 1011.9
20260905005000 58 299 1.0 3.0 0.00 0.02 0.02 66 1011.7
20260905004459 58 299 0.0 3.0 0.00 0.02 0.02 65 1011.6
20260905004219 57 294 0.0 3.0 0.00 0.02 0.02 68 1011.5
20260905003454 57 295 1.0 3.0 0.00 0.02 0.02 68 1011.5
20260905002954 57 296 1.0 4.0 0.00 0.02 0.02 68 1011.5
20260905002453 57 295 2.0 6.0 0.00 0.02 0.02 71 1011.5
20260905001951 56 294 2.0 6.0 0.00 0.02 0.02 72 1011.5
20260905001447 56 285 2.0 6.0 0.00 0.02 0.02 71 1011.5
20260905001430 56 299 2.0 7.0 0.00 0.02 0.02 70 1011.4
20260905000433 56 309 3.0 7.0 0.00 0.02 0.02 70 1011.5
20260904235927 56 282 3.0 10.0 0.00 0.02 0.02 71 1011.5
20260904235425 56 284 4.0 10.0 0.01 0.02 0.02 70 1011.4
20260904234925 57 294 4.0 10.0 0.01 0.02 0.02 73 1011.4
20260904234426 56 295 4.0 10.0 0.02 0.02 0.02 74 1011.3
20260904233936 55 235 5.0 10.0 0.02 0.02 0.02 77 1011.3
20260904233717 55 235 4.0 10.0 0.02 0.02 0.02 80 1011.1
20260904233712 54 265 3.0 9.0 0.02 0.02 0.02 85 1011.0
20260904232426 53 288 3.0 8.0 0.02 0.02 0.02 84 1011.0
20260904231923 53 296 3.0 6.0 0.02 0.02 0.02 85 1011.0
20260904231423 52 272 2.0 6.0 0.02 0.02 0.02 89 1011.0
20260904230923 51 265 2.0 6.0 0.02 0.02 0.02 88 1011.0
20260904230706 51 237 3.0 7.0 0.02 0.02 0.02 87 1010.9
20260904225923 50 208 5.0 12.0 0.02 0.02 0.02 85 1010.9
20260904225423 50 207 7.0 17.0 0.01 0.01 0.01 83 1011.0
20260904224945 53 202 9.0 20.0 0.00 0.00 0.00 75 1011.0
20260904224940 51 242 9.0 17.0 0.01 0.01 0.01 79 1011.1
20260904223932 55 204 9.0 20.0 0.00 0.00 0.00 66 1010.9
20260904223432 58 184 4.0 18.0 0.00 0.00 0.00 60 1010.9
20260904222927 61 181 1.0 4.0 0.00 0.00 0.00 52 1010.6
20260904222434 61 121 1.0 6.0 0.00 0.00 0.00 51 1010.3
20260904221408 62 136 2.0 10.0 0.00 0.00 0.00 50 1010.4
20260904220906 62 150 2.0 7.0 0.00 0.00 0.00 50 1010.3
20260904220401 62 115 3.0 10.0 0.00 0.00 0.00 50 1010.3
20260904215854 63 92 3.0 10.0 0.00 0.00 0.00 48 1010.3
20260904215618 63 86 2.0 7.0 0.00 0.00 0.00 48 1010.4
20260904214837 63 81 3.0 10.0 0.00 0.00 0.00 49 1010.5
20260904214332 63 118 4.0 11.0 0.00 0.00 0.00 49 1010.5
20260904213826 63 90 4.0 12.0 0.00 0.00 0.00 49 1010.5
20260904213319 62 92 4.0 12.0 0.00 0.00 0.00 49 1010.4
20260904213044 62 64 4.0 10.0 0.00 0.00 0.00 50 1010.4
20260904212307 62 173 4.0 10.0 0.00 0.00 0.00 51 1010.5
20260904211804 62 96 4.0 10.0 0.00 0.00 0.00 50 1010.4
20260904211300 62 152 4.0 10.0 0.00 0.00 0.00 50 1010.5
20260904210800 62 137 3.0 10.0 0.00 0.00 0.00 50 1010.5
20260904210541 62 116 4.0 10.0 0.00 0.00 0.00 51 1010.5
20260904205755 61 165 5.0 13.0 0.00 0.00 0.00 51 1010.5
20260904205255 61 133 5.0 13.0 0.00 0.00 0.00 51 1010.6
20260904204754 60 82 5.0 12.0 0.00 0.00 0.00 55 1010.5
20260904204254 59 124 5.0 12.0 0.00 0.00 0.00 56 1010.6
20260904203755 58 111 4.0 10.0 0.00 0.00 0.00 56 1010.6
20260904203255 58 143 4.0 10.0 0.00 0.00 0.00 55 1010.6
20260904202754 58 150 4.0 12.0 0.00 0.00 0.00 55 1010.6
20260904202255 58 200 5.0 12.0 0.00 0.00 0.00 54 1010.6
20260904201754 59 198 4.0 10.0 0.00 0.00 0.00 54 1010.7
20260904201254 59 148 4.0 12.0 0.00 0.00 0.00 55 1010.6
20260904200754 58 146 3.0 12.0 0.00 0.00 0.00 54 1010.8
20260904200254 58 142 4.0 12.0 0.00 0.00 0.00 55 1010.8
20260904200016 58 127 5.0 12.0 0.00 0.00 0.00 55 1010.9
20260904195754 58 127 5.0 12.0 0.00 0.00 0.00 55 1010.9
20260904195254 58 126 4.0 10.0 0.00 0.00 0.00 55 1011.0
20260904194751 58 117 4.0 10.0 0.00 0.00 0.00 54 1010.9
20260904194255 58 156 4.0 12.0 0.00 0.00 0.00 56 1011.0
20260904194017 57 169 5.0 12.0 0.00 0.00 0.00 57 1011.1
20260904193754 57 169 5.0 12.0 0.00 0.00 0.00 57 1011.1
20260904193252 57 136 4.0 11.0 0.00 0.00 0.00 57 1011.1
20260904193017 56 120 5.0 13.0 0.00 0.00 0.00 58 1011.1
20260904192253 56 147 6.0 13.0 0.00 0.00 0.00 57 1011.1
20260904191754 56 215 6.0 13.0 0.00 0.00 0.00 57 1011.1
20260904191337 56 207 5.0 13.0 0.00 0.00 0.00 59 1011.0
20260904191324 56 196 5.0 13.0 0.00 0.00 0.00 58 1011.0
20260904191053 57 212 5.0 15.0 0.00 0.00 0.00 59 1011.0
20260904185800 57 176 5.0 15.0 0.00 0.00 0.00 56 1011.0
20260904185256 57 156 5.0 11.0 0.00 0.00 0.00 56 1011.0
20260904184748 57 156 5.0 12.0 0.00 0.00 0.00 56 1011.0
20260904184248 58 198 5.0 12.0 0.00 0.00 0.00 55 1011.0
20260904183749 58 167 6.0 12.0 0.00 0.00 0.00 54 1010.9
20260904183249 58 144 5.0 12.0 0.00 0.00 0.00 53 1010.8
20260904182753 59 147 3.0 10.0 0.00 0.00 0.00 54 1010.7
20260904182509 59 211 3.0 12.0 0.00 0.00 0.00 55 1010.6
20260904182310 59 211 3.0 12.0 0.00 0.00 0.00 55 1010.6
20260904181745 59 198 3.0 12.0 0.00 0.00 0.00 55 1010.6
20260904181237 59 197 3.0 10.0 0.00 0.00 0.00 56 1010.6
20260904180730 58 146 4.0 10.0 0.00 0.00 0.00 55 1010.6
20260904180224 58 123 3.0 10.0 0.00 0.00 0.00 57 1010.5
20260904175720 57 127 1.0 5.0 0.00 0.00 0.00 59 1010.6
20260904175215 56 238 1.0 4.0 0.00 0.00 0.00 61 1010.7
20260904175210 55 326 1.0 3.0 0.00 0.00 0.00 61 1010.6
20260904174953 55 326 1.0 3.0 0.00 0.00 0.00 61 1010.6
20260904174200 55 326 2.0 4.0 0.00 0.00 0.00 61 1010.6
20260904173721 56 267 3.0 8.0 0.00 0.00 0.00 61 1010.4
20260904173708 55 325 2.0 7.0 0.00 0.00 0.00 61 1010.6
20260904172642 56 305 2.0 8.0 0.00 0.00 0.00 63 1010.5
20260904172136 56 310 2.0 4.0 0.00 0.00 0.00 62 1010.5
20260904171630 55 309 1.0 6.0 0.00 0.00 0.00 62 1010.6
20260904171124 56 286 0.0 6.0 0.00 0.00 0.00 61 1010.6
20260904170618 56 317 1.0 4.0 0.00 0.00 0.00 59 1010.5
20260904170112 56 317 1.0 4.0 0.00 0.00 0.00 61 1010.5
20260904165606 56 122 1.0 4.0 0.00 0.00 0.00 60 1010.5
20260904165100 55 125 1.0 4.0 0.00 0.00 0.00 63 1010.5
20260904164555 55 114 0.0 4.0 0.00 0.00 0.00 63 1010.5
20260904164053 54 24 0.0 3.0 0.00 0.00 0.00 63 1010.4
20260904163542 54 5 1.0 3.0 0.00 0.00 0.00 65 1010.3
20260904163036 53 355 1.0 3.0 0.00 0.00 0.00 66 1010.3
20260904162530 53 140 1.0 3.0 0.00 0.00 0.00 66 1010.2
20260904162024 52 140 0.0 3.0 0.00 0.00 0.00 68 1010.1
20260904161519 52 132 0.0 2.0 0.00 0.00 0.00 67 1010.2